Waarnemingen

Advertentie
Mijn weer
Dax, Frankrijk (7603): temperatuur & dauwpunt: 23.03.2017 01:00:00 - 29.03.2017 01:00:00 (CEST)Dax, Frankrijk (7603): temperatuur 5cm: 23.03.2017 01:00:00 - 29.03.2017 01:00:00 (CEST)Dax, Frankrijk (7603): temperatuur -20cm & temperatuur -100cm: 23.03.2017 01:00:00 - 29.03.2017 01:00:00 (CEST)Dax, Frankrijk (7603): windsnelheid & windstoten: 23.03.2017 01:00:00 - 29.03.2017 01:00:00 (CEST)Dax, Frankrijk (7603): windrichting: 23.03.2017 01:00:00 - 29.03.2017 01:00:00 (CEST)Dax, Frankrijk (7603): luchtdruk: 23.03.2017 01:00:00 - 29.03.2017 01:00:00 (CEST)Dax, Frankrijk (7603): zicht: 23.03.2017 01:00:00 - 29.03.2017 01:00:00 (CEST)Dax, Frankrijk (7603): Zonneschijnduur: 23.03.2017 01:00:00 - 29.03.2017 01:00:00 (CEST)Dax, Frankrijk (7603): neerslag: 23.03.2017 01:00:00 - 29.03.2017 01:00:00 (CEST)
Datum & Tijd tt [°C] td [°C] tt 5cm [°C] tt -20cm [°C] tt -100cm [°C] ff [km/u] ff [kn] fx [km/u] fx [kn] dd ppp [hPa] vv [km] sd [min] rr [mm]
29.03.2017 01:00:00 10,1 6,4 8,2 13,4 12,3 6 4 11 6 OZO 1027,1 30 0 0,0
29.03.2017 00:00:00 11,5 6,2 10,4 13,5 12,3 4 2 14 8 OZO 1027,1 31 0 0,0
28.03.2017 23:00:00 12,3 6,3 10,6 13,5 12,4 7 4 10 6 OZO 1026,9 31 0 0,0
28.03.2017 22:00:00 14,1 6,4 12,3 13,5 12,3 3 2 9 5 O 1026,7 28 0 0,0
28.03.2017 21:00:00 16,9 5,5 15,4 13,5 12,3 3 2 14 7 N 1026,1 42 0 0,0
28.03.2017 20:00:00 19,0 5,4 19,9 13,3 12,3 7 4 13 7 NNW 1025,8 41 60 0,0
28.03.2017 19:00:00 20,2 5,4 23,2 13,2 12,3 5 3 21 11 NNW 1025,3 31 60 0,0
28.03.2017 18:00:00 20,5 6,4 23,4 12,9 12,3 8 4 15 8 NNW 1025,2 37 60 0,0
28.03.2017 17:00:00 20,4 5,6 23,0 12,7 12,3 8 5 22 12 WNW 1025,2 27 60 0,0
28.03.2017 16:00:00 20,2 6,2 23,0 12,4 12,3 12 7 27 15 WZW 1025,6 40 60 0,0
28.03.2017 15:00:00 19,5 6,2 22,2 12,2 12,3 11 6 29 16 W 1026,0 40 60 0,0
28.03.2017 14:00:00 18,9 6,4 21,8 12,0 12,3 13 7 27 14 WZW 1026,4 40 60 0,0
28.03.2017 13:00:00 18,5 7,0 20,7 11,8 12,3 10 5 26 14 W 1026,6 40 60 0,0
28.03.2017 12:00:00 17,4 7,2 19,8 11,8 12,3 12 7 23 13 W 1026,5 40 60 0,0
28.03.2017 11:00:00 15,6 8,8 18,9 11,8 12,3 4 2 10 6 NW 1026,1 40 60 0,0
28.03.2017 10:00:00 12,5 8,0 12,9 11,9 12,3 0 0 4 2 N 1025,4 20 60 0,0
28.03.2017 09:00:00 7,5 6,4 5,1 12,0 12,3 0 0 3 1 N 1024,8 20 45 0,0
28.03.2017 08:00:00 5,8 4,8 5,0 12,1 12,3 2 1 3 2 NNO 1023,9 20 0 0,0
28.03.2017 07:00:00 6,5 5,3 5,5 12,2 12,3 0 0 4 2 N 1023,3 20 0 0,0
28.03.2017 06:00:00 7,0 5,5 6,2 12,3 12,3 0 0 4 2 N 1022,7 26 0 0,0
28.03.2017 05:00:00 7,6 5,9 6,5 12,3 12,3 0 0 5 3 N 1022,5 31 0 0,0
28.03.2017 04:00:00 8,3 6,4 7,1 12,4 12,3 0 0 5 3 N 1022,5 26 0 0,0
28.03.2017 03:00:00 8,2 6,2 7,1 12,5 12,3 0 0 5 3 N 1022,4 18 0 0,0
28.03.2017 02:00:00 8,8 6,1 7,8 12,6 12,3 3 2 7 4 Z 1022,0 10 0 0,0
28.03.2017 01:00:00 11,4 5,5 8,6 12,6 12,3 4 2 8 4 Z 1021,9 45 0 0,0
28.03.2017 00:00:00 10,7 6,1 8,4 12,6 12,3 5 3 11 6 Z 1021,4 30 0 0,0
27.03.2017 23:00:00 12,6 6,0 10,7 12,7 12,3 5 3 8 4 Z 1021,0 38 0 0,0
27.03.2017 22:00:00 13,6 6,0 11,6 12,7 12,3 5 3 11 6 ZZO 1020,2 19 0 0,0
27.03.2017 21:00:00 15,2 5,9 13,5 12,7 12,3 4 2 8 5 Z 1019,4 38 3 0,0
27.03.2017 20:00:00 17,2 6,1 16,4 12,6 12,3 6 3 19 10 Z 1018,9 39 56 0,0
27.03.2017 19:00:00 18,4 5,9 19,2 12,5 12,3 14 7 31 17 Z 1018,3 33 57 0,0
27.03.2017 18:00:00 19,0 7,1 20,5 12,4 12,3 12 7 23 12 ZZO 1017,8 39 55 0,0
27.03.2017 17:00:00 18,7 6,8 18,2 12,3 12,3 11 6 27 15 Z 1017,7 20 16 0,0
27.03.2017 16:00:00 16,9 6,1 17,4 12,3 12,3 18 10 33 18 ZZW 1017,9 20 0 0,0
27.03.2017 15:00:00 15,7 7,5 14,5 12,2 12,3 21 12 36 19 ZW 1018,0 27 0 0,0
27.03.2017 14:00:00 14,3 7,6 12,5 12,2 12,3 18 10 34 19 ZW 1017,8 20 0 0,4
27.03.2017 13:00:00 13,7 8,7 13,7 12,1 12,3 14 8 30 16 ZO 1017,5 20 0 0,0
27.03.2017 12:00:00 12,9 8,0 12,7 12,1 12,3 5 3 16 9 ZZO 1016,4 25 0 0,0
27.03.2017 11:00:00 11,4 8,1 10,8 12,1 12,3 8 4 20 11 ONO 1015,9 50 0 0,0
27.03.2017 10:00:00 9,8 6,9 9,4 12,2 12,3 7 4 14 8 ONO 1015,5 24 0 0,0
27.03.2017 09:00:00 9,2 5,7 8,5 12,2 12,3 5 3 19 10 NO 1015,1 20 0 0,0
27.03.2017 08:00:00 9,2 5,6 8,7 12,3 12,3 9 5 19 11 ONO 1014,4 20 0 0,0
27.03.2017 07:00:00 9,6 5,6 8,4 12,3 12,3 6 3 9 5 NO 1013,8 20 0 0,0
27.03.2017 06:00:00 9,5 5,9 8,5 12,4 12,3 4 2 13 7 ONO 1013,5 28 0 0,0
27.03.2017 05:00:00 10,0 6,2 8,7 12,4 12,3 11 6 16 9 NO 1013,6 31 0 0,0
27.03.2017 04:00:00 10,1 6,4 8,8 12,5 12,3 8 4 13 7 NO 1013,9 31 0 0,0
27.03.2017 03:00:00 10,6 6,2 9,4 12,6 12,3 7 4 13 7 NNO 1014,3 37 0 0,0
27.03.2017 02:00:00 11,0 5,5 9,8 12,6 12,3 5 3 13 7 NO 1014,6 42 0 0,0
27.03.2017 01:00:00 11,7 5,3 9,7 12,7 12,3 10 5 17 9 ONO 1014,3 41 0 0,0
27.03.2017 00:00:00 13,7 5,1 11,9 12,8 12,3 12 6 16 9 NO 1014,1 43 0 0,0
26.03.2017 23:00:00 14,3 4,8 12,2 12,8 12,3 11 6 24 13 O 1014,2 44 0 0,0
26.03.2017 22:00:00 15,5 5,4 14,4 12,8 12,3 15 8 23 13 O 1014,3 48 0 0,0
26.03.2017 21:00:00 16,8 5,7 15,1 12,8 12,3 12 7 19 10 ONO 1014,3 42 0 0,0
26.03.2017 20:00:00 18,7 5,9 18,3 12,6 12,3 13 7 26 14 ONO 1013,7 38 56 0,0
26.03.2017 19:00:00 19,8 4,3 18,2 12,5 12,3 18 10 31 17 O 1013,5 37 58 0,0
26.03.2017 18:00:00 18,6 3,6 17,9 12,4 12,3 11 6 19 11 O 1014,2 44 8 0,0
26.03.2017 17:00:00 20,9 3,1 19,8 12,1 12,3 6 4 21 11 O 1014,5 40 46 0,0
26.03.2017 16:00:00 20,1 3,3 22,7 11,9 12,3 12 7 26 14 O 1014,8 33 60 0,0
26.03.2017 15:00:00 19,0 4,3 21,3 11,7 12,3 13 7 24 13 O 1015,8 26 60 0,0
26.03.2017 14:00:00 17,5 6,1 20,1 11,5 12,3 11 6 22 12 NO 1016,3 33 60 0,0
26.03.2017 13:00:00 15,3 8,3 13,8 11,5 12,3 13 7 18 10 ONO 1016,7 33 46 0,0
26.03.2017 12:00:00 11,8 7,1 10,9 11,4 12,3 9 5 14 8 ONO 1016,8 27 27 0,0
26.03.2017 11:00:00 9,6 6,5 10,5 11,5 12,3 4 2 11 6 NNO 1016,6 34 15 0,0
26.03.2017 10:00:00 9,1 6,5 6,8 11,5 12,3 7 4 14 8 O 1016,3 39 17 0,0
26.03.2017 09:00:00 6,7 5,3 6,3 11,6 12,3 6 3 11 6 O 1015,8 37 6 0,0
26.03.2017 08:00:00 6,6 5,4 5,5 11,6 12,3 6 3 14 8 O 1015,1 32 0 0,0
26.03.2017 07:00:00 6,4 5,2 4,4 11,7 12,3 6 4 9 5 ONO 1014,6 23 0 0,0
26.03.2017 06:00:00 6,2 4,7 4,0 11,8 12,3 4 2 10 5 NO 1014,4 43 0 0,0
26.03.2017 05:00:00 6,8 5,1 4,8 11,9 12,3 4 2 7 4 OZO 1014,2 42 0 0,0
26.03.2017 04:00:00 7,5 5,5 6,0 11,9 12,3 4 2 9 5 OZO 1014,4 45 0 0,0
26.03.2017 03:00:00 8,2 5,0 7,4 12,0 12,3 5 3 11 6 ZO 1014,7 45 0 0,0
26.03.2017 02:00:00 8,6 4,2 8,2 12,0 12,3 7 4 14 8 OZO 1014,8 43 0 0,0
26.03.2017 01:00:00 9,2 4,2 8,5 12,1 12,3 6 3 8 4 O 1014,6 49 0 0,0
26.03.2017 00:00:00 9,7 3,4 8,9 12,1 12,3 5 3 11 6 OZO 1014,4 48 0 0,0
25.03.2017 23:00:00 10,0 3,0 9,0 12,2 12,3 3 2 13 7 OZO 1014,0 48 0 0,0
25.03.2017 22:00:00 10,6 2,7 9,9 12,2 12,3 10 5 26 14 Z 1013,8 44 0 0,0
25.03.2017 21:00:00 10,3 3,1 9,7 12,2 12,3 13 7 18 10 ZZO 1012,6 40 0 0,0
25.03.2017 20:00:00 10,5 2,3 10,2 12,2 12,3 13 7 34 18 Z 1011,7 49 0 0,0
25.03.2017 19:00:00 10,8 3,1 11,0 12,1 12,3 15 8 49 26 Z 1011,0 46 14 0,0
25.03.2017 18:00:00 11,2 3,0 11,8 12,1 12,3 26 14 46 25 Z 1010,0 43 2 0,0
25.03.2017 17:00:00 11,3 5,0 12,3 12,0 12,3 28 15 42 23 ZZW 1009,3 33 19 0,0
25.03.2017 16:00:00 11,3 8,3 10,4 11,9 12,3 7 4 15 8 Z 1009,5 23 5 0,0
25.03.2017 15:00:00 10,0 7,4 10,0 11,9 12,3 5 3 8 4 Z 1009,8 17 0 0,0
25.03.2017 14:00:00 10,3 7,4 9,8 11,9 12,3 0 0 5 3 N 1009,8 25 0 0,0
25.03.2017 13:00:00 9,3 7,7 8,4 11,8 12,3 0 0 7 4 N 1009,8 9 0 0,0
25.03.2017 12:00:00 8,1 7,0 8,0 11,9 12,3 2 1 8 5 ZZO 1010,1 10 0 0,0
25.03.2017 11:00:00 7,8 7,4 7,5 11,9 12,3 5 3 9 5 Z 1010,2 9 0 0,0
25.03.2017 10:00:00 7,3 6,9 6,8 12,0 12,3 4 2 10 5 ZZW 1010,3 10 0 0,0
25.03.2017 09:00:00 7,0 6,4 6,7 12,0 12,3 4 2 9 5 WNW 1011,0 3,0 0 0,8
25.03.2017 08:00:00 7,0 6,3 6,6 12,0 12,3 4 2 9 5 WNW 1011,3 3,7 0 0,4
25.03.2017 07:00:00 7,2 6,1 6,6 12,1 12,3 4 2 8 4 NNW 1012,3 7 0 0,0
25.03.2017 06:00:00 7,3 5,9 6,7 12,2 12,3 5 3 9 5 N 1012,8 16 0 0,0
25.03.2017 05:00:00 7,5 6,1 6,9 12,2 12,3 0 0 6 3 N 1013,5 21 0 0,0
25.03.2017 04:00:00 7,8 5,9 6,9 12,2 12,3 5 3 9 5 NNO 1014,6 8 0 0,2
25.03.2017 03:00:00 8,4 5,7 7,2 12,3 12,3 2 1 4 2 ONO 1015,2 33 0 0,0
25.03.2017 02:00:00 8,3 5,8 7,5 12,3 12,3 2 1 13 7 ZO 1015,8 34 0 0,0
25.03.2017 01:00:00 8,8 6,1 7,7 12,4 12,3 10 5 17 9 O 1016,4 25 0 0,2
25.03.2017 00:00:00 9,8 5,0 9,4 12,4 12,3 11 6 36 19 O 1016,6 43 0 0,0
24.03.2017 23:00:00 10,9 5,8 10,1 12,4 12,3 6 3 16 9 O 1016,6 31 0 0,0
24.03.2017 22:00:00 11,6 6,1 11,3 12,4 12,3 12 7 21 12 O 1016,9 36 0 0,0
24.03.2017 21:00:00 12,0 5,6 11,5 12,4 12,3 13 7 22 12 O 1016,9 34 0 0,0
24.03.2017 20:00:00 13,1 5,7 12,8 12,4 12,4 16 9 26 14 O 1016,3 39 0 0,0
24.03.2017 19:00:00 13,5 4,4 13,7 12,3 12,4 4 2 19 10 W 1016,1 23 2 0,0
24.03.2017 18:00:00 14,4 3,5 15,8 12,1 12,3 10 5 23 12 NW 1015,9 36 7 0,0
24.03.2017 17:00:00 14,6 3,4 16,4 11,9 12,3 12 7 24 13 NNW 1015,9 36 0 0,0
24.03.2017 16:00:00 14,9 4,3 16,9 11,7 12,3 9 5 31 17 WNW 1016,0 20 41 0,0
24.03.2017 15:00:00 14,6 2,8 17,7 11,5 12,4 13 7 25 14 WNW 1015,9 20 57 0,0
24.03.2017 14:00:00 13,6 0,6 16,1 11,4 12,3 9 5 19 11 NW 1016,4 20 44 0,0
24.03.2017 13:00:00 12,3 3,5 12,7 11,3 12,3 4 2 10 5 NW 1017,4 35 35 0,0
24.03.2017 12:00:00 9,9 4,5 9,0 11,3 12,3 5 3 15 8 NO 1017,2 14 25 0,0
24.03.2017 11:00:00 7,2 4,0 7,1 11,4 12,3 9 5 14 8 N 1016,9 20 0 0,0
24.03.2017 10:00:00 6,3 3,6 6,1 11,5 12,4 6 4 16 9 ONO 1016,5 20 50 0,0
24.03.2017 09:00:00 4,8 3,1 2,6 11,5 12,4 10 5 16 9 NO 1015,7 10 15 0,0
24.03.2017 08:00:00 3,7 2,5 2,5 11,6 12,4 5 3 9 5 O 1015,0 11 0 0,0
24.03.2017 07:00:00 4,1 2,9 3,6 11,7 12,4 2 1 16 8 OZO 1014,6 12 0 0,0
24.03.2017 06:00:00 5,3 3,1 4,2 11,8 12,4 5 3 12 7 NO 1014,2 11 0 0,0
24.03.2017 05:00:00 4,8 2,7 4,1 11,9 12,4 3 2 17 9 ONO 1014,1 20 0 0,0
24.03.2017 04:00:00 5,9 3,1 4,1 12,0 12,4 10 6 16 9 NO 1014,2 14 0 0,0
24.03.2017 03:00:00 5,9 2,5 4,0 12,1 12,4 7 4 17 9 O 1014,0 27 0 0,0
24.03.2017 02:00:00 5,3 2,5 4,0 12,2 12,4 5 3 19 10 O 1013,7 11 0 0,0
24.03.2017 01:00:00 6,8 2,5 5,5 12,2 12,4 8 5 15 8 ONO 1013,4 11 0 0,0
24.03.2017 00:00:00 8,5 2,3 7,5 12,3 12,4 8 4 14 8 NO 1013,1 8 0 0,0
23.03.2017 23:00:00 8,8 1,9 8,2 12,3 12,4 11 6 20 11 NO 1012,5 39 0 0,0
23.03.2017 22:00:00 9,6 2,0 8,8 12,3 12,4 9 5 16 9 NO 1011,9 40 0 0,0
23.03.2017 21:00:00 10,1 2,0 9,5 12,3 12,4 7 4 14 8 N 1011,0 36 0 0,0
23.03.2017 20:00:00 11,2 1,7 10,6 12,3 12,4 9 5 16 9 N 1010,1 40 32 0,0
23.03.2017 19:00:00 12,5 0,9 13,5 12,2 12,4 9 5 19 10 NNW 1009,5 34 38 0,0
23.03.2017 18:00:00 13,3 -0,4 13,4 12,0 12,4 12 7 23 12 WZW 1009,0 31 37 0,0
23.03.2017 17:00:00 13,8 0,8 13,8 11,9 12,4 8 4 29 16 ZW 1009,0 50 41 0,0
23.03.2017 16:00:00 13,3 -0,7 13,4 11,6 12,4 16 9 30 16 ZZW 1009,2 50 28 0,0
23.03.2017 15:00:00 12,8 -0,1 13,2 11,5 12,4 14 8 29 16 ZZW 1009,4 20 45 0,0
23.03.2017 14:00:00 11,8 -0,1 12,8 11,4 12,4 19 10 46 25 ZW 1009,8 20 56 0,0
23.03.2017 13:00:00 10,7 1,2 12,3 11,4 12,4 14 7 29 16 ZW 1009,9 29 60 0,0
23.03.2017 12:00:00 9,7 0,8 9,7 11,4 12,4 18 10 34 18 WZW 1010,0 20 58 0,0
23.03.2017 11:00:00 8,8 4,6 6,9 11,4 12,4 8 4 15 8 ZW 1009,9 20 60 0,0
23.03.2017 10:00:00 4,9 3,7 4,0 11,5 12,4 9 5 20 11 Z 1009,4 20 1 0,0
23.03.2017 09:00:00 4,4 3,5 3,7 11,6 12,4 9 5 15 8 ZZO 1009,0 20 0 0,0
23.03.2017 08:00:00 4,7 3,8 4,1 11,6 12,4 8 4 11 6 Z 1008,6 20 0 0,0
23.03.2017 07:00:00 5,1 4,4 4,5 11,7 12,4 4 2 10 5 Z 1008,5 28 0 0,0
23.03.2017 06:00:00 5,6 4,2 5,1 11,8 12,5 3 2 18 10 W 1008,4 8 0 1,8
23.03.2017 05:00:00 6,1 5,5 5,6 11,8 12,4 8 4 14 8 ZZW 1009,1 4,9 0 0,8
23.03.2017 04:00:00 6,2 5,3 5,7 11,9 12,4 8 4 18 10 W 1009,2 8 0 0,2
23.03.2017 03:00:00 6,8 5,9 6,0 11,9 12,5 8 4 12 7 WZW 1009,3 4,5 0 0,4
23.03.2017 02:00:00 6,7 5,2 6,0 12,0 12,4 0 0 4 2 N 1009,4 14 0 0,0
23.03.2017 01:00:00 - - - - - - - - - - - - - -

tt = temperatuur
td = dauwpunt
tt 5cm = temperatuur 5cm
tt -20cm = temperatuur -20cm
tt -100cm = temperatuur -100cm
ff = windsnelheid
fx = windstoten
dd = windrichting
ppp = luchtdruk
vv = zicht
sd = Zonneschijnduur
rr = neerslag

Weerstations in de omgeving